Location: Central Coast
(33.3208°S, 151.2336°E)
Time: 23:27:42
(UTC+11:00)

Tiangong 1 - Pass Details

Date: 12 October 2017
Orbit: 293 x 320 km, 42.8° (Epoch: 19 October)

Event Time Altitude Azimuth Distance (km) Brightness Sun altitude
Exits shadow 05:11:13 20° 226° (SW) 795 2.4 -14.4°
Maximum altitude 05:11:58 22° 199° (SSW) 728 2.4 -14.3°
Drops below altitude 10° 05:14:10 10° 144° (SE) 1,196 4.4 -13.8°
Sets 05:16:24 0° 127° (SE) 2,032 6.2 -13.4°
